Regional Weather Roundup
Issued by NWS

Home | Current Version | Previous Version | Graphics & Text | Print | Product List | Glossary On
Versions: 1 2 3 4 5 6 7 8 9 10 11 12 13 14 15 16 17 18 19 20 21 22 23 24 25 26 27 28 29 30 31 32 33 34 35 36 37 38 39 40 41 42 43 44 45 46 47 48 49 50
650
ASUS43 KLMK 240210
RWRKY
KENTUCKY REGIONAL WEATHER ROUNDUP
NATIONAL WEATHER SERVICE LOUISVILLE KY
1000 PM EDT MON OCT 23 2017

NOTE "FAIR" INDICATES FEW OR NO CLOUDS BELOW 12,000 FEET
WITH NO SIGNIFICANT WEATHER AND/OR OBSTRUCTIONS TO VISIBILITY.

KYZ001>023-026-027-061>063-070>075-240300-
WESTERN AND SOUTH CENTRAL KENTUCKY

CITY           SKY/WX    TMP DP  RH WIND       PRES   REMARKS
PADUCAH        MOCLDY    59  45  59 S8        29.80F
HENDERSON      CLOUDY    52  46  80 S3        29.81F
OWENSBORO      PTCLDY    50  46  86 SE5       29.84F
HOPKINSVILLE   PTCLDY    53  46  75 S9        29.87F
BOWLING GREEN  CLOUDY    52  47  83 SW7       29.89R
GLASGOW        CLEAR     48  44  87 W6        29.89R
$$

KYZ024-025-028>034-038-045-046-053-240300-
NORTH CENTRAL KENTUCKY

CITY           SKY/WX    TMP DP  RH WIND       PRES   REMARKS
LOUISVILLE/SDF CLOUDY    51  48  89 SW8       29.83R
LOUISVILLE/LOU CLOUDY    50  48  93 SW6       29.83R
FORT KNOX      MOCLDY    49  46  90 SW7       29.83R
$$

KYZ035>037-039>044-047>052-055>060-089>105-240300-
NORTHEAST KENTUCKY

CITY           SKY/WX    TMP DP  RH WIND       PRES   REMARKS
LEXINGTON      LGT RAIN  53  50  89 SW12      29.80R
COVINGTON      LGT RAIN  52  52 100 W15       29.72R FOG
FRANKFORT      CLOUDY    52  47  83 W10G18    29.80R
$$

KYZ054-064>069-076>088-106>120-240300-
SOUTHEAST KENTUCKY

CITY           SKY/WX    TMP DP  RH WIND       PRES   REMARKS
JACKSON        CLOUDY    54  51  90 VRB5      29.82R
LONDON         CLOUDY    53  49  86 W17G26    29.86R
SOMERSET       CLOUDY    50  50 100 W9        29.90R
MIDDLESBORO    DRIZZLE   55  53  92 CALM      29.88R
MONTICELLO     CLOUDY    50  46  86 W16       29.92R
$$





USA.gov is the U.S. government's official web portal to all federal, state and local government web resources and services.